AAL51 EGKK-KDFW

Flight info

Callsign AAL51
Flight time N/A
Altitude 30000
Route NOVMA L620 SAM N19 ADKIK DCT PEWBI DCT MOPAT DCT RESNO/M083F320 DCT 56N020W 56N030W 56N040W 55N050W DCT LOMSI/N0490F340 N668A TAFFY DCT PQI DCT CABCI Q29 NIPPY/N0469F360 DCT WILET DCT REBBL DCT LEJOY DCT EMNEM Q71 GEFFS DCT TONIO DCT ARTUR DCT NIOLA DCT VLKNN Q30 IZAAC DCT YUYUN BEREE3
Aircraft MD11/H-SDE1E2E3FGHIJ2J3J4J5M1RWXY/LB1D1

Departure

Time 2026-05-04 19:53
Airport London Gatwick Airport (EGKK)

Arrival

Time N/A
Airport Dallas Fort Worth International Airport (KDFW)
Time Latitude Longitude Altitude Speed Heading
2026-05-04 18:59 51.15826 -0.17626 199 ft 0 kts 348°
2026-05-04 19:32 51.15815 -0.17623 199 ft 2 kts 347°
2026-05-04 19:32 51.15796 -0.17616 198 ft 2 kts 347°
2026-05-04 19:32 51.15786 -0.17612 198 ft 1 kts 347°
2026-05-04 19:32 51.15772 -0.17605 198 ft 2 kts 326°
2026-05-04 19:33 51.15762 -0.17590 198 ft 2 kts 306°
2026-05-04 19:33 51.15755 -0.17570 198 ft 2 kts 286°
2026-05-04 19:33 51.15753 -0.17547 199 ft 2 kts 266°
2026-05-04 19:33 51.15754 -0.17538 199 ft 0 kts 258°
2026-05-04 19:34 51.15750 -0.17577 198 ft 5 kts 259°
2026-05-04 19:34 51.15746 -0.17605 198 ft 0 kts 258°
2026-05-04 19:39 51.15745 -0.17608 198 ft 1 kts 258°
2026-05-04 19:39 51.15737 -0.17678 198 ft 12 kts 258°
2026-05-04 19:39 51.15710 -0.17864 195 ft 19 kts 258°
2026-05-04 19:39 51.15683 -0.18072 193 ft 19 kts 258°
2026-05-04 19:40 51.15652 -0.18294 192 ft 17 kts 256°
2026-05-04 19:40 51.15638 -0.18339 192 ft 4 kts 210°
2026-05-04 19:40 51.15578 -0.18345 193 ft 13 kts 171°
2026-05-04 19:40 51.15485 -0.18314 195 ft 13 kts 168°
2026-05-04 19:41 51.15391 -0.18281 195 ft 13 kts 167°
2026-05-04 19:41 51.15302 -0.18250 195 ft 11 kts 168°
2026-05-04 19:41 51.15278 -0.18242 195 ft 0 kts 169°
2026-05-04 19:43 51.15264 -0.18237 195 ft 5 kts 169°
2026-05-04 19:43 51.15218 -0.18232 195 ft 9 kts 194°
2026-05-04 19:43 51.15175 -0.18345 198 ft 15 kts 259°
2026-05-04 19:44 51.15154 -0.18534 198 ft 19 kts 260°
2026-05-04 19:44 51.15125 -0.18760 198 ft 22 kts 258°
2026-05-04 19:44 51.15091 -0.19017 198 ft 23 kts 258°
2026-05-04 19:44 51.15057 -0.19230 197 ft 14 kts 241°
2026-05-04 19:45 51.14970 -0.19298 195 ft 14 kts 225°
2026-05-04 19:45 51.14939 -0.19452 195 ft 14 kts 260°
2026-05-04 19:45 51.14920 -0.19614 195 ft 14 kts 258°
2026-05-04 19:45 51.14898 -0.19768 196 ft 14 kts 257°
2026-05-04 19:46 51.14868 -0.19981 198 ft 23 kts 257°
2026-05-04 19:46 51.14834 -0.20229 198 ft 23 kts 258°
2026-05-04 19:46 51.14800 -0.20477 198 ft 22 kts 257°
2026-05-04 19:46 51.14769 -0.20697 198 ft 18 kts 258°
2026-05-04 19:47 51.14741 -0.20897 199 ft 17 kts 257°
2026-05-04 19:47 51.14714 -0.21087 200 ft 17 kts 257°
2026-05-04 19:47 51.14700 -0.21186 201 ft 0 kts 258°
2026-05-04 19:49 51.14700 -0.21193 201 ft 2 kts 258°
2026-05-04 19:49 51.14681 -0.21291 203 ft 13 kts 237°
2026-05-04 19:49 51.14630 -0.21324 204 ft 0 kts 176°
2026-05-04 19:51 51.14629 -0.21324 204 ft 0 kts 176°
2026-05-04 19:51 51.14590 -0.21315 204 ft 11 kts 166°
2026-05-04 19:51 51.14522 -0.21208 202 ft 17 kts 101°
2026-05-04 19:52 51.14523 -0.21150 201 ft 0 kts 80°
2026-05-04 19:52 51.14523 -0.21149 201 ft 1 kts 80°
2026-05-04 19:52 51.14552 -0.20926 199 ft 51 kts 78°
2026-05-04 19:52 51.14677 -0.19997 198 ft 116 kts 77°
2026-05-04 19:53 51.14891 -0.18455 199 ft 168 kts 77°
2026-05-04 19:53 51.15161 -0.16489 344 ft 186 kts 77°
2026-05-04 19:53 51.15423 -0.14490 734 ft 189 kts 77°
2026-05-04 19:53 51.15696 -0.12359 1034 ft 199 kts 78°
2026-05-04 19:54 51.15984 -0.10256 1585 ft 196 kts 75°
2026-05-04 19:54 51.16396 -0.08234 2045 ft 194 kts 56°
2026-05-04 19:54 51.17419 -0.06684 1999 ft 214 kts 24°
2026-05-04 19:54 51.18912 -0.06185 2150 ft 231 kts 356°
2026-05-04 19:55 51.20434 -0.06890 2757 ft 223 kts 334°
2026-05-04 19:55 51.21730 -0.08266 3076 ft 231 kts 323°
2026-05-04 19:55 51.22793 -0.10361 3046 ft 254 kts 294°
2026-05-04 19:55 51.23143 -0.13192 3049 ft 267 kts 266°
2026-05-04 19:56 51.22700 -0.16079 3029 ft 272 kts 250°
2026-05-04 19:56 51.22041 -0.18922 3003 ft 273 kts 253°
2026-05-04 19:56 51.21514 -0.21811 2998 ft 273 kts 258°
2026-05-04 19:56 51.21086 -0.24780 3000 ft 273 kts 260°
2026-05-04 19:57 51.20713 -0.27743 2997 ft 273 kts 261°
2026-05-04 19:57 51.20359 -0.30729 2999 ft 272 kts 261°
2026-05-04 19:57 51.20015 -0.33700 2998 ft 272 kts 261°
2026-05-04 19:57 51.19663 -0.36611 3440 ft 267 kts 260°
2026-05-04 19:58 51.19276 -0.39514 3950 ft 276 kts 259°
2026-05-04 19:58 51.18872 -0.42539 3980 ft 279 kts 259°
2026-05-04 19:58 51.18471 -0.45559 3983 ft 276 kts 259°
2026-05-04 19:58 51.18080 -0.48537 3994 ft 274 kts 260°
2026-05-04 19:59 51.17682 -0.51535 3999 ft 275 kts 258°
2026-05-04 19:59 51.17174 -0.54448 3999 ft 283 kts 251°
2026-05-04 19:59 51.16399 -0.57455 4323 ft 297 kts 247°
2026-05-04 19:59 51.15540 -0.60493 4826 ft 306 kts 247°
2026-05-04 20:00 51.14665 -0.63617 5433 ft 312 kts 247°
2026-05-04 20:00 51.13799 -0.66762 6098 ft 314 kts 246°
2026-05-04 20:00 51.12927 -0.69944 6777 ft 316 kts 246°
2026-05-04 20:00 51.12048 -0.73172 7433 ft 319 kts 246°
2026-05-04 20:01 51.11175 -0.76380 8085 ft 321 kts 247°
2026-05-04 20:01 51.10280 -0.79673 8692 ft 324 kts 247°
2026-05-04 20:01 51.09388 -0.82960 9314 ft 327 kts 247°
2026-05-04 20:01 51.08495 -0.86257 9963 ft 330 kts 247°
2026-05-04 20:02 51.07571 -0.89672 10370 ft 342 kts 247°
2026-05-04 20:02 51.06612 -0.93214 10463 ft 362 kts 247°
2026-05-04 20:02 51.06511 -0.93590 10475 ft 364 kts 247°
2026-05-04 20:02 51.05736 -0.96457 10696 ft 374 kts 247°
2026-05-04 20:03 51.04700 -1.00299 11225 ft 382 kts 247°
2026-05-04 20:03 51.03649 -1.04201 11784 ft 386 kts 247°
2026-05-04 20:03 51.02589 -1.08140 12378 ft 390 kts 247°
2026-05-04 20:03 51.01517 -1.12130 12933 ft 395 kts 247°
2026-05-04 20:04 51.00437 -1.16157 13492 ft 398 kts 246°
2026-05-04 20:04 50.99349 -1.20216 14042 ft 402 kts 246°
2026-05-04 20:04 50.98265 -1.24263 14588 ft 405 kts 246°
2026-05-04 20:04 50.97151 -1.28426 15152 ft 408 kts 247°
2026-05-04 20:05 50.96109 -1.32557 15680 ft 411 kts 250°
2026-05-04 20:05 50.95233 -1.36916 16187 ft 415 kts 255°
2026-05-04 20:05 50.94600 -1.41402 16688 ft 418 kts 259°
2026-05-04 20:05 50.94036 -1.45927 17200 ft 421 kts 259°
2026-05-04 20:06 50.93454 -1.50504 17687 ft 424 kts 258°
2026-05-04 20:06 50.92859 -1.55086 18167 ft 427 kts 258°
2026-05-04 20:06 50.92264 -1.59646 18652 ft 429 kts 258°
2026-05-04 20:06 50.91660 -1.64290 19169 ft 431 kts 258°
2026-05-04 20:07 50.91052 -1.68973 19668 ft 433 kts 257°
2026-05-04 20:07 50.90448 -1.73630 20172 ft 434 kts 257°
2026-05-04 20:07 50.89842 -1.78327 20660 ft 436 kts 257°
2026-05-04 20:07 50.89234 -1.83051 21145 ft 437 kts 256°
2026-05-04 20:08 50.88626 -1.87782 21629 ft 439 kts 256°
2026-05-04 20:08 50.88019 -1.92531 22102 ft 440 kts 256°
2026-05-04 20:08 50.87415 -1.97263 22569 ft 442 kts 256°
2026-05-04 20:08 50.86800 -2.02058 23009 ft 444 kts 255°
2026-05-04 20:09 50.86143 -2.06847 23449 ft 445 kts 255°
2026-05-04 20:09 50.85479 -2.11623 23912 ft 447 kts 255°
2026-05-04 20:09 50.84822 -2.16395 24322 ft 449 kts 255°
2026-05-04 20:09 50.84158 -2.21251 24679 ft 452 kts 255°
2026-05-04 20:10 50.83499 -2.26108 25031 ft 455 kts 255°
2026-05-04 20:10 50.82837 -2.31008 25370 ft 458 kts 255°
2026-05-04 20:10 50.82162 -2.36017 25718 ft 460 kts 255°
2026-05-04 20:10 50.81501 -2.40952 26070 ft 462 kts 255°
2026-05-04 20:11 50.80831 -2.45960 26471 ft 463 kts 256°
2026-05-04 20:11 50.80344 -2.50966 26720 ft 470 kts 264°
2026-05-04 20:11 50.80394 -2.56153 26966 ft 477 kts 274°
2026-05-04 20:11 50.80998 -2.61301 27256 ft 482 kts 284°
2026-05-04 20:12 50.82058 -2.66360 27539 ft 486 kts 287°
2026-05-04 20:12 50.83215 -2.71441 27850 ft 488 kts 287°
2026-05-04 20:12 50.84323 -2.76482 28106 ft 490 kts 286°
2026-05-04 20:12 50.85418 -2.81603 28362 ft 492 kts 286°
2026-05-04 20:13 50.86494 -2.86707 28711 ft 492 kts 286°
2026-05-04 20:13 50.87563 -2.91792 29095 ft 491 kts 286°
2026-05-04 20:13 50.88654 -2.96976 29417 ft 491 kts 286°
2026-05-04 20:13 50.89742 -3.02137 29750 ft 490 kts 286°
2026-05-04 20:14 50.90819 -3.07235 30028 ft 489 kts 286°
2026-05-04 20:14 50.92974 -3.17415 30027 ft 487 kts 287°
2026-05-04 20:15 50.95128 -3.27540 29998 ft 489 kts 287°
2026-05-04 20:15 50.97303 -3.37730 30003 ft 489 kts 287°
2026-05-04 20:16 50.99494 -3.47945 30000 ft 488 kts 288°
2026-05-04 20:16 51.01686 -3.58129 30000 ft 488 kts 288°
2026-05-04 20:17 51.03885 -3.68297 30011 ft 489 kts 288°
2026-05-04 20:17 51.06083 -3.78428 30012 ft 488 kts 288°
2026-05-04 20:18 51.08305 -3.88624 30028 ft 486 kts 288°
2026-05-04 20:18 51.10341 -3.98831 30019 ft 485 kts 287°
2026-05-04 20:19 51.12333 -4.09044 30026 ft 485 kts 287°
2026-05-04 20:19 51.14354 -4.19249 30027 ft 486 kts 287°
2026-05-04 20:20 51.16407 -4.29554 30025 ft 487 kts 288°
2026-05-04 20:20 51.18458 -4.39794 30035 ft 488 kts 288°
2026-05-04 20:21 51.20531 -4.50088 30048 ft 489 kts 288°
2026-05-04 20:21 51.23669 -4.65605 30023 ft 490 kts 288°
2026-05-04 20:22 51.25770 -4.75927 30026 ft 490 kts 288°
2026-05-04 20:22 51.27878 -4.86247 30034 ft 490 kts 289°
2026-05-04 20:23 51.30007 -4.96638 30031 ft 491 kts 289°
2026-05-04 20:23 51.31810 -5.07139 30025 ft 494 kts 282°
2026-05-04 20:24 51.32848 -5.18016 30042 ft 496 kts 279°
2026-05-04 20:24 51.33779 -5.28945 30036 ft 495 kts 279°
2026-05-04 20:25 51.34725 -5.39810 30050 ft 496 kts 279°
2026-05-04 20:25 51.35689 -5.50732 30035 ft 498 kts 280°
2026-05-04 20:26 51.36663 -5.61647 30025 ft 498 kts 280°
2026-05-04 20:26 51.37654 -5.72626 30032 ft 498 kts 280°
2026-05-04 20:27 51.38657 -5.83637 30035 ft 498 kts 280°
2026-05-04 20:27 51.39667 -5.94590 30032 ft 499 kts 281°
2026-05-04 20:28 51.40688 -6.05591 30046 ft 500 kts 281°
2026-05-04 20:28 51.41731 -6.16685 30048 ft 501 kts 281°
2026-05-04 20:29 51.42777 -6.27702 30044 ft 501 kts 282°
2026-05-04 20:29 51.43828 -6.38674 30050 ft 501 kts 282°
2026-05-04 20:30 51.44849 -6.49734 30061 ft 502 kts 281°
2026-05-04 20:30 51.45721 -6.60856 30061 ft 502 kts 281°
2026-05-04 20:31 51.46626 -6.71998 30068 ft 502 kts 281°
2026-05-04 20:31 51.47551 -6.83127 30062 ft 502 kts 281°
2026-05-04 20:32 51.48484 -6.94228 30065 ft 502 kts 281°
2026-05-04 20:32 51.49567 -7.05204 30060 ft 498 kts 290°
2026-05-04 20:33 51.50739 -7.10377 30081 ft 493 kts 301°
2026-05-04 20:33 51.52452 -7.15102 30083 ft 486 kts 311°
2026-05-04 20:33 51.56771 -7.23356 30078 ft 481 kts 316°
2026-05-04 20:34 51.61088 -7.31656 30081 ft 481 kts 314°
2026-05-04 20:34 51.65279 -7.39987 30077 ft 481 kts 314°
2026-05-04 20:35 51.69468 -7.48344 30082 ft 480 kts 314°
2026-05-04 20:35 51.73661 -7.56706 30084 ft 479 kts 314°
2026-05-04 20:36 51.77829 -7.65006 30085 ft 479 kts 314°
2026-05-04 20:36 51.82029 -7.73367 30085 ft 479 kts 314°
2026-05-04 20:37 51.86244 -7.81740 30089 ft 479 kts 314°
2026-05-04 20:37 51.90472 -7.90123 30082 ft 479 kts 314°
2026-05-04 20:38 51.94690 -7.98477 30087 ft 478 kts 314°
2026-05-04 20:38 51.98910 -8.06824 30090 ft 477 kts 314°
2026-05-04 20:39 52.03120 -8.15155 30102 ft 481 kts 314°
2026-05-04 20:39 52.07388 -8.23628 30091 ft 489 kts 312°
2026-05-04 20:40 52.11562 -8.32410 30097 ft 497 kts 311°
2026-05-04 20:40 52.15832 -8.41385 30099 ft 504 kts 312°
2026-05-04 20:41 52.20173 -8.50448 30097 ft 507 kts 312°
2026-05-04 20:41 52.24490 -8.59436 30111 ft 504 kts 311°
2026-05-04 20:42 52.28820 -8.68431 30105 ft 500 kts 311°
2026-05-04 20:42 52.33090 -8.77292 30103 ft 498 kts 311°
2026-05-04 20:43 52.37396 -8.86202 30110 ft 499 kts 311°
2026-05-04 20:43 52.41693 -8.95088 30126 ft 499 kts 311°
2026-05-04 20:44 52.46013 -9.04012 30120 ft 499 kts 311°
2026-05-04 20:44 52.50316 -9.12884 30114 ft 498 kts 311°
2026-05-04 20:45 52.54618 -9.21738 30113 ft 496 kts 311°
2026-05-04 20:45 52.58908 -9.30598 30116 ft 495 kts 310°
2026-05-04 20:46 52.63062 -9.39720 30121 ft 495 kts 309°
2026-05-04 20:46 52.67189 -9.48766 30131 ft 495 kts 309°
2026-05-04 20:47 52.71355 -9.57845 30132 ft 495 kts 309°
2026-05-04 20:47 52.75520 -9.66898 30127 ft 496 kts 309°
2026-05-04 20:48 52.79723 -9.76008 30124 ft 495 kts 308°
2026-05-04 20:48 52.83884 -9.85019 30123 ft 494 kts 308°
2026-05-04 20:49 52.88043 -9.94010 30133 ft 493 kts 308°
2026-05-04 20:49 52.92233 -10.03053 30138 ft 493 kts 308°
2026-05-04 20:50 52.96404 -10.12039 30136 ft 493 kts 308°
2026-05-04 20:50 53.00610 -10.21089 30126 ft 494 kts 308°
2026-05-04 20:51 53.04817 -10.30123 30123 ft 493 kts 309°
2026-05-04 20:51 53.09024 -10.39162 30122 ft 492 kts 308°
2026-05-04 20:52 53.13027 -10.48324 30127 ft 491 kts 307°
2026-05-04 20:52 53.17043 -10.57533 30134 ft 490 kts 307°
2026-05-04 20:53 53.21064 -10.66691 30130 ft 490 kts 306°
2026-05-04 20:53 53.25117 -10.75896 30133 ft 489 kts 306°
2026-05-04 20:54 53.29123 -10.84981 30129 ft 489 kts 307°
2026-05-04 20:54 53.33164 -10.94117 30124 ft 488 kts 306°
2026-05-04 20:55 53.37177 -11.03188 30130 ft 487 kts 306°
2026-05-04 20:55 53.41222 -11.12307 30133 ft 487 kts 307°
2026-05-04 20:56 53.45248 -11.21360 30134 ft 487 kts 307°
2026-05-04 20:56 53.49295 -11.30449 30133 ft 486 kts 307°
2026-05-04 20:57 53.53339 -11.39522 30139 ft 485 kts 307°
2026-05-04 20:57 53.57383 -11.48579 30144 ft 485 kts 307°
2026-05-04 20:58 53.61309 -11.57812 30148 ft 485 kts 304°
2026-05-04 20:58 53.65160 -11.67092 30140 ft 485 kts 304°
2026-05-04 20:59 53.69035 -11.76352 30145 ft 485 kts 304°
2026-05-04 20:59 53.72938 -11.85637 30151 ft 485 kts 304°
2026-05-04 21:00 53.76837 -11.94889 30151 ft 485 kts 304°
2026-05-04 21:00 53.80742 -12.04135 30151 ft 486 kts 304°
2026-05-04 21:01 53.84650 -12.13377 30148 ft 485 kts 304°
2026-05-04 21:01 53.88576 -12.22643 30148 ft 485 kts 304°
2026-05-04 21:02 53.92515 -12.31928 30156 ft 484 kts 304°
2026-05-04 21:02 53.96422 -12.41114 30159 ft 484 kts 304°
2026-05-04 21:03 54.00372 -12.50384 30166 ft 485 kts 304°
2026-05-04 21:03 54.04338 -12.59682 30169 ft 485 kts 305°
2026-05-04 21:04 54.08224 -12.68973 30170 ft 485 kts 302°
2026-05-04 21:04 54.11969 -12.78457 30178 ft 484 kts 302°
2026-05-04 21:05 54.15752 -12.87946 30170 ft 484 kts 303°
2026-05-04 21:05 54.19522 -12.97351 30170 ft 484 kts 303°
2026-05-04 21:06 54.23326 -13.06813 30171 ft 483 kts 303°
2026-05-04 21:06 54.27125 -13.16253 30178 ft 483 kts 304°
2026-05-04 21:07 54.30924 -13.25666 30162 ft 484 kts 304°
2026-05-04 21:07 54.34753 -13.35136 30156 ft 484 kts 304°
2026-05-04 21:08 54.38586 -13.44601 30156 ft 483 kts 304°
2026-05-04 21:08 54.42405 -13.54009 30159 ft 482 kts 305°
2026-05-04 21:09 54.46246 -13.63449 30171 ft 482 kts 305°
2026-05-04 21:09 54.50084 -13.72870 30177 ft 482 kts 304°
2026-05-04 21:10 54.50819 -13.74672 30177 ft 483 kts 304°
2026-05-04 21:10 54.54102 -13.82733 30172 ft 483 kts 304°
2026-05-04 21:11 54.57771 -13.92376 30174 ft 484 kts 303°
2026-05-04 21:11 54.61451 -14.02075 30174 ft 482 kts 303°
2026-05-04 21:12 54.65131 -14.11698 30173 ft 481 kts 304°
2026-05-04 21:12 54.68803 -14.21266 30173 ft 481 kts 304°
2026-05-04 21:13 54.72493 -14.30861 30175 ft 481 kts 304°
2026-05-04 21:13 54.76205 -14.40490 30219 ft 482 kts 304°
2026-05-04 21:14 54.78061 -14.45295 30641 ft 480 kts 304°
2026-05-04 21:14 54.79903 -14.50061 31005 ft 478 kts 304°
2026-05-04 21:14 54.81740 -14.54811 31235 ft 479 kts 304°
2026-05-04 21:14 54.83598 -14.59609 31536 ft 479 kts 304°
2026-05-04 21:15 54.85434 -14.64346 31834 ft 478 kts 304°
2026-05-04 21:15 54.87284 -14.69115 32116 ft 477 kts 304°
2026-05-04 21:15 54.90976 -14.78618 32185 ft 478 kts 304°
2026-05-04 21:16 54.94707 -14.88192 32192 ft 476 kts 304°
2026-05-04 21:16 54.98444 -14.97558 32194 ft 476 kts 304°
2026-05-04 21:17 55.01785 -15.07555 32190 ft 479 kts 296°
2026-05-04 21:17 55.04175 -15.18271 32193 ft 479 kts 290°
2026-05-04 21:18 55.06404 -15.29160 32195 ft 477 kts 291°
2026-05-04 21:18 55.08686 -15.39986 32193 ft 475 kts 291°
2026-05-04 21:19 55.10992 -15.50785 32195 ft 476 kts 291°
2026-05-04 21:19 55.13297 -15.61529 32192 ft 477 kts 292°
2026-05-04 21:20 55.15626 -15.72334 32192 ft 477 kts 291°
2026-05-04 21:20 55.17970 -15.83161 32194 ft 476 kts 291°
2026-05-04 21:21 55.20316 -15.93950 32193 ft 476 kts 291°
2026-05-04 21:21 55.22662 -16.04691 32193 ft 475 kts 291°
2026-05-04 21:22 55.25024 -16.15469 32193 ft 475 kts 292°
2026-05-04 21:22 55.27393 -16.26231 32195 ft 475 kts 292°
2026-05-04 21:23 55.28555 -16.31500 32198 ft 475 kts 292°
2026-05-04 21:23 55.29177 -16.34312 32199 ft 475 kts 292°
2026-05-04 21:24 55.30855 -16.41872 32201 ft 476 kts 292°
2026-05-04 21:24 55.33183 -16.52718 32207 ft 477 kts 290°
2026-05-04 21:25 55.35319 -16.63746 32208 ft 476 kts 290°
2026-05-04 21:25 55.37476 -16.74707 32206 ft 477 kts 289°
2026-05-04 21:26 55.39660 -16.85679 32206 ft 477 kts 290°
2026-05-04 21:26 55.41861 -16.96674 32208 ft 477 kts 290°
2026-05-04 21:27 55.44056 -17.07580 32214 ft 476 kts 290°
2026-05-04 21:27 55.46273 -17.18547 32221 ft 476 kts 290°
2026-05-04 21:28 55.48510 -17.29563 32217 ft 476 kts 290°
2026-05-04 21:28 55.50738 -17.40487 32218 ft 477 kts 290°
2026-05-04 21:29 55.52987 -17.51470 32226 ft 477 kts 290°
2026-05-04 21:29 55.55247 -17.62460 32227 ft 478 kts 291°
2026-05-04 21:30 55.57521 -17.73464 32232 ft 478 kts 290°
2026-05-04 21:30 55.59808 -17.84485 32232 ft 478 kts 290°
2026-05-04 21:31 55.62904 -18.01183 32230 ft 478 kts 288°
2026-05-04 21:32 55.64945 -18.12372 32230 ft 478 kts 288°
2026-05-04 21:32 55.67007 -18.23527 32238 ft 478 kts 288°
2026-05-04 21:33 55.69068 -18.34603 32236 ft 478 kts 289°
2026-05-04 21:33 55.71157 -18.45772 32240 ft 477 kts 289°
2026-05-04 21:34 55.73259 -18.56944 32245 ft 477 kts 289°
2026-05-04 21:34 55.75355 -18.68032 32254 ft 477 kts 288°
2026-05-04 21:35 55.77468 -18.79169 32256 ft 478 kts 288°
2026-05-04 21:35 55.79603 -18.90367 32259 ft 478 kts 288°
2026-05-04 21:36 55.81707 -19.01485 32257 ft 478 kts 289°
2026-05-04 21:36 55.83841 -19.12651 32256 ft 478 kts 289°
2026-05-04 21:37 55.85990 -19.23781 32252 ft 477 kts 289°
2026-05-04 21:37 55.88019 -19.34974 32250 ft 475 kts 288°
2026-05-04 21:38 55.89978 -19.46203 32255 ft 474 kts 288°
2026-05-04 21:38 55.91952 -19.57354 32260 ft 473 kts 288°
2026-05-04 21:39 55.93937 -19.68481 32262 ft 472 kts 288°
2026-05-04 21:39 55.95931 -19.79595 32261 ft 472 kts 288°
2026-05-04 21:40 55.97944 -19.90743 32253 ft 470 kts 288°
2026-05-04 21:40 55.99745 -20.01877 32250 ft 471 kts 283°
2026-05-04 21:41 56.00567 -20.13445 32261 ft 472 kts 274°
2026-05-04 21:41 56.00873 -20.25164 32263 ft 471 kts 274°
2026-05-04 21:42 56.01199 -20.36792 32265 ft 470 kts 275°
2026-05-04 21:42 56.01545 -20.48452 32257 ft 470 kts 275°
2026-05-04 21:43 56.01905 -20.60063 32253 ft 470 kts 275°
2026-05-04 21:43 56.02277 -20.71719 32255 ft 471 kts 274°
2026-05-04 21:44 56.02660 -20.83372 32257 ft 471 kts 274°
2026-05-04 21:44 56.03053 -20.94984 32258 ft 471 kts 274°
2026-05-04 21:45 56.03458 -21.06625 32263 ft 471 kts 275°
2026-05-04 21:45 56.03875 -21.18276 32259 ft 471 kts 275°
2026-05-04 21:46 56.04303 -21.29967 32252 ft 470 kts 275°
2026-05-04 21:46 56.04742 -21.41641 32253 ft 470 kts 275°
2026-05-04 21:47 56.05198 -21.53462 32260 ft 471 kts 275°
2026-05-04 21:47 56.05609 -21.65123 32262 ft 472 kts 272°
2026-05-04 21:48 56.05760 -21.76902 32266 ft 473 kts 272°
2026-05-04 21:48 56.05941 -21.88619 32271 ft 471 kts 272°
2026-05-04 21:49 56.06145 -22.00240 32275 ft 470 kts 272°
2026-05-04 21:49 56.06367 -22.11925 32280 ft 471 kts 272°
2026-05-04 21:50 56.06601 -22.23601 32281 ft 472 kts 273°
2026-05-04 21:50 56.06848 -22.35316 32283 ft 472 kts 273°
2026-05-04 21:51 56.07107 -22.47008 32291 ft 472 kts 273°
2026-05-04 21:51 56.07377 -22.58749 32289 ft 472 kts 273°
2026-05-04 21:52 56.07656 -22.70431 32291 ft 472 kts 272°
2026-05-04 21:52 56.07949 -22.82219 32302 ft 472 kts 273°
2026-05-04 21:53 56.08254 -22.93964 32287 ft 472 kts 273°
2026-05-04 21:53 56.08563 -23.05629 32275 ft 472 kts 273°
2026-05-04 21:54 56.08753 -23.17343 32280 ft 473 kts 270°
2026-05-04 21:54 56.08758 -23.29106 32289 ft 474 kts 271°
2026-05-04 21:55 56.08808 -23.40896 32290 ft 473 kts 271°
2026-05-04 21:55 56.08881 -23.52639 32280 ft 474 kts 271°
2026-05-04 21:56 56.08967 -23.64406 32283 ft 474 kts 271°
2026-05-04 21:56 56.09066 -23.76284 32290 ft 474 kts 271°
2026-05-04 21:57 56.09174 -23.88058 32295 ft 474 kts 271°
2026-05-04 21:57 56.09295 -23.99773 32302 ft 475 kts 271°
2026-05-04 21:58 56.09428 -24.11605 32297 ft 476 kts 271°
2026-05-04 21:58 56.09571 -24.23408 32300 ft 476 kts 271°
2026-05-04 21:59 56.09728 -24.35283 32301 ft 476 kts 271°
2026-05-04 21:59 56.09893 -24.47086 32293 ft 476 kts 272°
2026-05-04 22:00 56.10073 -24.58906 32290 ft 477 kts 271°
2026-05-04 22:00 56.10005 -24.70792 32287 ft 478 kts 268°
2026-05-04 22:01 56.09884 -24.82667 32290 ft 478 kts 269°
2026-05-04 22:01 56.09801 -24.94509 32304 ft 479 kts 269°
2026-05-04 22:02 56.09736 -25.06385 32292 ft 479 kts 269°
2026-05-04 22:02 56.09684 -25.18312 32304 ft 479 kts 269°
2026-05-04 22:03 56.09643 -25.30267 32308 ft 479 kts 270°
2026-05-04 22:03 56.09615 -25.42158 32310 ft 479 kts 270°
2026-05-04 22:04 56.09600 -25.54087 32307 ft 480 kts 270°
2026-05-04 22:04 56.09594 -25.66015 32314 ft 480 kts 269°
2026-05-04 22:05 56.09598 -25.77952 32322 ft 481 kts 270°
2026-05-04 22:05 56.09617 -25.89884 32320 ft 481 kts 270°
2026-05-04 22:06 56.09649 -26.01800 32306 ft 482 kts 270°
2026-05-04 22:06 56.09607 -26.13805 32304 ft 483 kts 268°
2026-05-04 22:07 56.09321 -26.25817 32308 ft 483 kts 268°
2026-05-04 22:07 56.09077 -26.37777 32307 ft 484 kts 268°
2026-05-04 22:08 56.08856 -26.49859 32311 ft 484 kts 269°
2026-05-04 22:08 56.08652 -26.61862 32310 ft 484 kts 269°
2026-05-04 22:09 56.08465 -26.73822 32311 ft 484 kts 268°
2026-05-04 22:09 56.08286 -26.85908 32312 ft 485 kts 269°
2026-05-04 22:10 56.08121 -26.97963 32311 ft 486 kts 269°
2026-05-04 22:10 56.07966 -27.10001 32304 ft 487 kts 269°
2026-05-04 22:11 56.07819 -27.22116 32304 ft 487 kts 270°
2026-05-04 22:11 56.07687 -27.34202 32310 ft 487 kts 270°
2026-05-04 22:12 56.07567 -27.46249 32315 ft 488 kts 270°
2026-05-04 22:12 56.07453 -27.58397 32315 ft 489 kts 270°
2026-05-04 22:13 56.07062 -27.70542 32320 ft 491 kts 267°
2026-05-04 22:13 56.06650 -27.82695 32316 ft 491 kts 268°
2026-05-04 22:14 56.06275 -27.94833 32332 ft 492 kts 268°
2026-05-04 22:14 56.05917 -28.07011 32342 ft 493 kts 269°
2026-05-04 22:15 56.05572 -28.19244 32337 ft 494 kts 269°
2026-05-04 22:15 56.05238 -28.31524 32334 ft 494 kts 270°
2026-05-04 22:16 56.04917 -28.43763 32331 ft 494 kts 270°
2026-05-04 22:16 56.04608 -28.56006 32330 ft 495 kts 270°
2026-05-04 22:17 56.04312 -28.68264 32326 ft 495 kts 270°
2026-05-04 22:17 56.04027 -28.80475 32332 ft 496 kts 270°
2026-05-04 22:18 56.03754 -28.92791 32335 ft 496 kts 271°
2026-05-04 22:18 56.03496 -29.05108 32334 ft 497 kts 271°
2026-05-04 22:19 56.03055 -29.17380 32332 ft 498 kts 269°
2026-05-04 22:19 56.02557 -29.29634 32342 ft 497 kts 269°
2026-05-04 22:20 56.02062 -29.41907 32355 ft 497 kts 269°
2026-05-04 22:20 56.01596 -29.54249 32354 ft 496 kts 270°
2026-05-04 22:21 56.01151 -29.66552 32347 ft 496 kts 269°
2026-05-04 22:21 56.00722 -29.78750 32346 ft 497 kts 270°
2026-05-04 22:22 56.00301 -29.91098 32353 ft 496 kts 270°
2026-05-04 22:22 55.99916 -30.03308 32354 ft 494 kts 272°
2026-05-04 22:23 56.00281 -30.15478 32364 ft 491 kts 278°
2026-05-04 22:23 56.00766 -30.27618 32360 ft 491 kts 277°
2026-05-04 22:24 56.01168 -30.39799 32349 ft 490 kts 277°
2026-05-04 22:24 56.01550 -30.51949 32361 ft 490 kts 277°
2026-05-04 22:25 56.01939 -30.64049 32363 ft 490 kts 277°
2026-05-04 22:25 56.02343 -30.76242 32361 ft 489 kts 276°
2026-05-04 22:26 56.02758 -30.88349 32359 ft 488 kts 277°
2026-05-04 22:26 56.03183 -31.00407 32356 ft 488 kts 277°
2026-05-04 22:27 56.03619 -31.12437 32353 ft 487 kts 277°
2026-05-04 22:27 56.04069 -31.24551 32370 ft 487 kts 277°
2026-05-04 22:28 56.04526 -31.36585 32364 ft 487 kts 277°
2026-05-04 22:28 56.04991 -31.48519 32359 ft 487 kts 277°
2026-05-04 22:29 56.05242 -31.60569 32362 ft 488 kts 275°
2026-05-04 22:29 56.05405 -31.72678 32352 ft 488 kts 274°
2026-05-04 22:30 56.05611 -31.84810 32357 ft 487 kts 275°
2026-05-04 22:30 56.05835 -31.96847 32356 ft 487 kts 275°
2026-05-04 22:31 56.06074 -32.08918 32366 ft 486 kts 275°
2026-05-04 22:31 56.06326 -32.20995 32362 ft 486 kts 275°
2026-05-04 22:32 56.06589 -32.33095 32342 ft 486 kts 275°
2026-05-04 22:32 56.06862 -32.45146 32333 ft 486 kts 276°
2026-05-04 22:33 56.07150 -32.57267 32334 ft 486 kts 276°
2026-05-04 22:33 56.07447 -32.69278 32340 ft 486 kts 275°
2026-05-04 22:34 56.07759 -32.81349 32338 ft 486 kts 275°
2026-05-04 22:34 56.08078 -32.93339 32350 ft 486 kts 276°
2026-05-04 22:35 56.08294 -33.05379 32355 ft 487 kts 273°
2026-05-04 22:35 56.08297 -33.17500 32335 ft 487 kts 274°
2026-05-04 22:36 56.08347 -33.29613 32324 ft 487 kts 274°
2026-05-04 22:36 56.08419 -33.41735 32332 ft 487 kts 275°
2026-05-04 22:37 56.08509 -33.53871 32341 ft 488 kts 275°
2026-05-04 22:37 56.08610 -33.66049 32335 ft 489 kts 274°
2026-05-04 22:38 56.08724 -33.78140 32336 ft 489 kts 275°
2026-05-04 22:38 56.08850 -33.90315 32337 ft 489 kts 275°
2026-05-04 22:39 56.08991 -34.02506 32328 ft 490 kts 275°
2026-05-04 22:39 56.09141 -34.14661 32334 ft 491 kts 276°
2026-05-04 22:40 56.09303 -34.26850 32332 ft 490 kts 276°
2026-05-04 22:40 56.09477 -34.39066 32324 ft 491 kts 276°
2026-05-04 22:41 56.09626 -34.51312 32322 ft 492 kts 274°
2026-05-04 22:41 56.09490 -34.63528 32320 ft 492 kts 274°
2026-05-04 22:42 56.09380 -34.75732 32318 ft 493 kts 274°
2026-05-04 22:42 56.09305 -34.87995 32318 ft 493 kts 274°
2026-05-04 22:43 56.09243 -35.00270 32323 ft 493 kts 274°
2026-05-04 22:43 56.09196 -35.12502 32313 ft 494 kts 274°
2026-05-04 22:44 56.09159 -35.24802 32309 ft 493 kts 275°
2026-05-04 22:44 56.09136 -35.37003 32319 ft 493 kts 275°
2026-05-04 22:45 56.09124 -35.49259 32300 ft 492 kts 276°
2026-05-04 22:45 56.09133 -35.67593 32320 ft 491 kts 275°
2026-05-04 22:46 56.09153 -35.79761 32323 ft 490 kts 276°
2026-05-04 22:46 56.09185 -35.91969 32302 ft 490 kts 276°
2026-05-04 22:47 56.09100 -36.04089 32303 ft 492 kts 274°
2026-05-04 22:47 56.08812 -36.16330 32292 ft 491 kts 274°
2026-05-04 22:48 56.08567 -36.28558 32296 ft 490 kts 274°
2026-05-04 22:48 56.08349 -36.40704 32299 ft 488 kts 274°
2026-05-04 22:49 56.08147 -36.52825 32295 ft 486 kts 275°
2026-05-04 22:49 56.07959 -36.64923 32309 ft 485 kts 275°
2026-05-04 22:50 56.07781 -36.76934 32296 ft 485 kts 274°
2026-05-04 22:50 56.07618 -36.88985 32284 ft 484 kts 274°
2026-05-04 22:51 56.07466 -37.00994 32285 ft 482 kts 274°
2026-05-04 22:51 56.07323 -37.12979 32296 ft 482 kts 275°
2026-05-04 22:52 56.07199 -37.25002 32287 ft 481 kts 274°
2026-05-04 22:52 56.07078 -37.36925 32297 ft 481 kts 275°
2026-05-04 22:53 56.06945 -37.48864 32284 ft 482 kts 273°
2026-05-04 22:53 56.06529 -37.60867 32285 ft 482 kts 272°
2026-05-04 22:54 56.06131 -37.72776 32267 ft 481 kts 271°
2026-05-04 22:54 56.05763 -37.84745 32256 ft 481 kts 272°
2026-05-04 22:55 56.05416 -37.96693 32265 ft 480 kts 272°
2026-05-04 22:55 56.05082 -38.08566 32252 ft 479 kts 272°
2026-05-04 22:56 56.04756 -38.20454 32239 ft 479 kts 272°
2026-05-04 22:56 56.04447 -38.32372 32244 ft 480 kts 272°
2026-05-04 22:57 56.04146 -38.44278 32240 ft 480 kts 272°
2026-05-04 22:57 56.03856 -38.56220 32236 ft 480 kts 272°
2026-05-04 22:58 56.03579 -38.68164 32246 ft 480 kts 271°
2026-05-04 22:58 56.03310 -38.80137 32233 ft 481 kts 271°
2026-05-04 22:59 56.03057 -38.92026 32247 ft 481 kts 271°
2026-05-04 22:59 56.02655 -39.03976 32252 ft 483 kts 269°
2026-05-04 23:00 56.02153 -39.15951 32239 ft 481 kts 269°
2026-05-04 23:00 56.01684 -39.27883 32247 ft 481 kts 270°
2026-05-04 23:01 56.01239 -39.39808 32226 ft 480 kts 270°
2026-05-04 23:01 56.00802 -39.51761 32222 ft 481 kts 270°
2026-05-04 23:02 56.00380 -39.63683 32226 ft 481 kts 270°
2026-05-04 23:02 55.99970 -39.75573 32211 ft 482 kts 269°
2026-05-04 23:03 55.99574 -39.87529 32211 ft 482 kts 269°
2026-05-04 23:03 55.99535 -39.99378 32212 ft 480 kts 274°
2026-05-04 23:04 55.99292 -40.11341 32205 ft 484 kts 266°
2026-05-04 23:04 55.98503 -40.23199 32185 ft 483 kts 265°
2026-05-04 23:05 55.97679 -40.35098 32173 ft 483 kts 265°
2026-05-04 23:05 55.96857 -40.47022 32168 ft 484 kts 265°
2026-05-04 23:06 55.96053 -40.58904 32168 ft 485 kts 265°
2026-05-04 23:06 55.95252 -40.70902 32172 ft 486 kts 265°
2026-05-04 23:07 55.94469 -40.82843 32163 ft 486 kts 265°
2026-05-04 23:07 55.93690 -40.94801 32156 ft 487 kts 265°
2026-05-04 23:08 55.92925 -41.06793 32149 ft 488 kts 265°
2026-05-04 23:08 55.92163 -41.18829 32147 ft 488 kts 264°
2026-05-04 23:09 55.91412 -41.30837 32143 ft 488 kts 265°
2026-05-04 23:09 55.90678 -41.42834 32136 ft 489 kts 265°
2026-05-04 23:10 55.89951 -41.54922 32121 ft 489 kts 265°
2026-05-04 23:10 55.89120 -41.66973 32120 ft 490 kts 261°
2026-05-04 23:11 55.88084 -41.79002 32109 ft 491 kts 262°
2026-05-04 23:11 55.87090 -41.91010 32102 ft 491 kts 262°
2026-05-04 23:12 55.86109 -42.03138 32087 ft 493 kts 262°
2026-05-04 23:12 55.85145 -42.15247 32092 ft 493 kts 262°
2026-05-04 23:13 55.84197 -42.27280 32076 ft 493 kts 262°
2026-05-04 23:13 55.83251 -42.39399 32062 ft 494 kts 262°
2026-05-04 23:14 55.82315 -42.51577 32055 ft 494 kts 262°
2026-05-04 23:14 55.81404 -42.63641 32050 ft 495 kts 262°
2026-05-04 23:15 55.80497 -42.75787 32047 ft 495 kts 261°
2026-05-04 23:15 55.79604 -42.87919 32053 ft 496 kts 261°
2026-05-04 23:16 55.78713 -43.00180 32046 ft 497 kts 261°
2026-05-04 23:16 55.77760 -43.12323 32041 ft 498 kts 259°
2026-05-04 23:17 55.76552 -43.24514 32035 ft 499 kts 259°
2026-05-04 23:17 55.75386 -43.36641 32016 ft 500 kts 259°
2026-05-04 23:18 55.74242 -43.48817 32003 ft 501 kts 259°